Regional Weather Roundup
Issued by NWS

Home | Current Version | Previous Version | Text Only | Print | Product List | Glossary Off
Versions: 1 2 3 4 5 6 7 8 9 10 11 12 13 14 15 16 17 18 19 20 21 22 23 24 25 26 27 28 29 30 31 32 33 34 35 36 37 38 39 40 41 42 43 44 45 46 47 48 49 50

000
ASUS45 KSLC 262210
RWRUT

UTAH REGIONAL WEATHER ROUNDUP
NATIONAL WEATHER SERVICE SALT LAKE CITY UT
300 PM MST WED NOV 26 2014

UTZ001>011-023>025-262300-

NORTHERN UTAH

CITY           SKY/WX    TMP DP  RH WIND       PRES   REMARKS
BRIGHAM CITY   SUNNY     56  29  35 S9        30.36S
HILL AFB       SUNNY     56  29  35 SW9       30.36F
LOGAN          SUNNY     56  30  37 CALM      30.33S
OGDEN          SUNNY     57  29  34 SW5       30.35F
PROVO AIRPORT  NOT AVBL
SALT LAKE CITY MOSUNNY   60  28  29 CALM      30.35F
VERNAL         SUNNY     52  30  43 E3        30.30S
WENDOVER       SUNNY     55  30  38 E5        30.35S
HEBER CITY     SUNNY     54  28  37 CALM      30.37S
WEST JORDAN    SUNNY     57  36  44 S7        30.37S

$$

UTZ012>022-026-027-262300-

SOUTHERN/CENTRAL UTAH

CITY           SKY/WX    TMP DP  RH WIND       PRES   REMARKS
BLANDING       SUNNY     52  19  26 SE9       30.43R
BRYCE CANYON   SUNNY     53  20  27 W13       30.45F
CEDAR CITY     SUNNY     61  19  19 NW7       30.39S
DELTA          SUNNY     56  27  32 SW3       30.39S
MILFORD        SUNNY     61  24  24 S8        30.38S
MOAB/CYNLANDS  SUNNY     54  18  24 CALM      30.33F
PRICE          SUNNY     54  25  32 SW5       30.36F
ST GEORGE      CLEAR     57  16  19 CALM      30.35F
KANAB          SUNNY     59  19  21 CALM      30.40F

$$

REGIONAL REPORTS     COLORADO/ARIZONA

CITY           SKY/WX    TMP DP  RH WIND       PRES   REMARKS
CRAIG, CO      MOSUNNY   51  29  42 W10       30.30R
GRAND JUNCTION SUNNY     50  21  32 NW6       30.36R
RIFLE          SUNNY     44  26  49 E3        30.36F
MONTROSE       SUNNY     54  26  34 N6        30.36R
CORTEZ         SUNNY     57  23  26 NW15G21   30.35S
PAGE, AZ       SUNNY     57  16  20 NE7       30.36S
GRAND CANYON   SUNNY     61  17  18 VRB3      30.43S
KINGMAN        SUNNY     67  15  13 N9        30.31F
FLAGSTAFF      SUNNY     61  14  16 E10       30.43S

$$

REGIONAL REPORTS    NEVADA/IDAHO/WYOMING

CITY           SKY/WX    TMP DP  RH WIND       PRES   REMARKS
LAS VEGAS, NV  SUNNY     67  14  13 CALM      30.27F
ELY            SUNNY     61  13  15 W8        30.41S
ELKO           MOSUNNY   57  29  34 SW8       30.35F
POCATELLO, ID  MOSUNNY   53  36  52 W15       30.29F
BURLEY         PTSUNNY   56  35  45 W8        30.28F
EVANSTON, WY   MOSUNNY   44  27  51 SW16      30.37R
ROCK SPRINGS   SUNNY     46  27  47 W28G40    30.28R

$$


USA.gov is the U.S. government's official web portal to all federal, state and local government web resources and services.